Tracking 23114 objects as of 18-May-2021
HD Live streaming from Space Station
objects crossing your sky now

COSMOS 1249 COOLANT

Track COSMOS 1249 COOLANT now!
10-day predictions


NORAD ID: 26509
Int'l Code: 1981-021L
Perigee: 905.0 km
Apogee: 958.5 km
Inclination: 65.0 °
Period: 103.5 minutes
Semi major axis: 7302 km
RCS: 0.006 m2 (small)
Launch date: March 5, 1981
Source: Commonwealth of Independent States (former USSR) (CIS)
Launch site: TYURATAM MISSILE AND SPACE COMPLEX (TTMTR)

Note: This is SATELLITE DEBRIS
aabbcc
Your satellite tracking list
Your tracking list is empty




NASA's NSSDC Master Catalog

Two Line Element Set (TLE):
1 26509U 81021L   21136.62573361 -.00000039  00000-0  40501-4 0  9997
2 26509  64.9628 142.5993 0036632 144.9742 215.3742 13.91142983401429
Source of the keplerian elements: AFSPC